Wind_Speed
41 41 41 41 40 39 39 39 38 39 39 39 38 38 37 36 35 35 34 34 33 33 32 32 31 30 30 30 30 30 30 30 29 29 29 29 31 31 31 31 32 33 33
43 43 43 43 42 42 41 40 39 40 40 40 40 40 39 39 38 37 36 36 35 34 34 33 32 32 32 32 32 32 31 31 30 30 30 31 31 32 33 33 33 34 35
44 44 44 44 44 44 43 43 42 41 42 42 42 42 42 41 40 39 37 37 37 37 36 35 35 34 33 33 32 32 31 31 32 32 32 32 33 33 34 34 35 36 36
45 44 45 45 45 45 45 44 44 43 43 43 43 43 43 42 41 41 39 38 38 38 37 37 36 35 35 33 33 33 33 32 33 33 33 34 34 35 35 36 36 37 37
46 46 45 46 46 46 46 46 45 44 44 44 44 44 44 43 43 42 41 40 39 38 37 38 37 36 36 35 34 34 34 33 34 35 35 35 35 36 37 37 37 38 38
48 48 48 48 48 48 48 47 46 44 44 44 44 45 44 44 43 43 42 40 39 39 39 39 38 37 37 37 36 35 35 35 35 36 36 37 37 37 38 38 39 39 39
48 47 48 48 49 49 48 48 47 45 44 44 44 44 44 45 44 44 42 41 40 40 39 40 40 40 39 39 37 37 36 37 37 38 38 38 39 39 40 39 39 39 39
48 48 48 48 49 49 48 48 47 46 46 46 46 46 45 44 43 44 44 42 41 41 41 41 41 41 40 39 38 38 38 38 39 39 39 39 40 40 40 39 39 39 39
49 50 49 49 49 49 48 48 48 48 46 46 47 46 45 44 44 44 44 43 42 41 40 40 40 40 41 40 39 39 39 39 40 39 39 39 40 40 40 39 39 38 38
48 48 48 49 49 49 49 49 49 48 47 47 48 46 45 45 44 44 44 43 43 43 42 40 40 41 41 41 40 40 40 40 40 39 39 39 39 40 40 39 39 39 38
46 46 46 47 48 49 49 49 49 48 48 48 48 47 45 43 43 44 44 43 42 42 42 42 41 41 41 41 41 41 41 40 39 39 38 39 39 39 40 39 39 39 39
45 46 46 46 48 48 48 48 49 48 49 48 48 47 47 46 44 43 43 42 42 42 42 42 42 41 41 41 41 41 40 39 38 38 38 38 39 39 40 39 39 39 39
44 44 45 46 46 47 47 47 48 48 49 47 47 47 47 46 45 44 44 43 43 43 43 42 42 42 42 41 42 41 40 39 38 38 38 38 38 39 39 38 38 38 38
44 45 45 45 46 47 48 47 47 48 48 47 46 46 47 46 47 46 45 45 44 43 43 42 43 42 43 43 42 41 40 39 39 39 39 39 39 38 39 38 38 37 37
43 44 45 45 45 47 47 46 45 46 46 46 45 45 46 47 46 46 46 46 46 44 44 42 43 43 42 43 42 41 40 40 39 38 39 39 39 39 38 38 38 37 37
45 44 44 44 44 46 46 47 45 45 45 45 44 44 45 46 46 45 44 44 44 44 43 42 43 43 42 42 43 43 41 40 40 39 39 40 40 38 38 38 37 38 38
43 43 44 43 43 44 45 45 46 45 44 44 44 44 44 44 44 44 43 43 44 43 43 42 42 41 42 42 43 42 40 40 40 40 40 40 39 38 38 38 38 39 39
41 42 43 43 42 42 42 43 43 43 43 44 44 44 44 44 43 43 43 42 43 43 42 41 40 40 41 42 43 42 40 40 41 41 40 39 39 39 38 39 39 39 39
37 38 39 39 40 40 40 40 40 41 42 43 44 44 44 44 43 43 43 43 43 43 41 41 40 40 40 41 41 41 40 40 40 40 39 39 38 38 38 39 39 38 38
35 36 36 35 37 37 37 38 39 40 41 41 42 42 43 43 43 43 44 43 42 42 41 40 39 39 39 39 40 40 38 38 38 38 38 38 38 38 38 37 37 37 36
33 34 34 34 34 36 36 37 37 38 39 39 40 41 42 42 42 42 43 42 41 41 41 39 38 38 38 38 38 38 37 36 37 37 37 38 38 38 37 38 37 36 35
31 32 32 33 33 34 35 35 36 36 37 37 38 39 40 40 40 41 41 41 40 39 40 39 38 38 37 37 36 37 37 37 37 37 37 37 37 37 37 36 35 35 34
29 30 30 31 31 32 33 34 34 35 35 35 36 37 38 38 39 38 38 38 38 37 38 38 38 37 36 36 36 36 36 36 35 35 36 36 36 36 36 35 34 34 33
28 28 28 29 30 30 30 30 31 32 32 33 33 34 35 36 37 37 36 35 36 36 36 37 36 36 35 35 35 35 34 33 32 32 33 33 34 34 35 34 34 32 31
26 26 26 27 27 27 28 29 30 30 30 31 31 32 33 34 35 35 35 35 36 36 35 35 36 35 35 35 35 33 32 32 32 32 32 32 33 33 33 33 33 31 30
24 24 25 26 26 27 28 29 30 29 29 30 31 31 32 32 33 33 33 33 33 33 33 34 34 34 33 33 33 32 31 32 32 32 32 31 31 31 31 30 30 29 28
Wind_Direction
252 252 252 253 253 254 255 256 258 260 261 261 261 263 264 264 264 264 266 267 268 269 269 271 272 273 275 277 278 279 281 283 284 286 289 292 295 297 298 298 298 299 299
252 253 253 254 254 254 255 256 258 260 261 261 261 262 263 264 264 264 265 267 268 269 270 270 272 273 274 275 277 278 280 281 283 285 288 291 294 296 298 297 297 298 298
253 253 253 254 255 256 256 256 257 259 261 262 262 262 263 263 264 263 264 266 268 268 269 270 271 272 273 274 275 277 279 281 283 284 286 289 292 295 297 297 298 299 299
253 253 253 255 256 257 257 257 257 258 262 262 262 263 264 263 264 264 263 264 266 268 268 269 270 271 271 272 273 277 279 281 282 284 285 287 291 293 295 296 297 298 298
253 253 254 255 256 257 258 258 257 259 262 262 261 262 263 263 263 263 263 264 266 268 268 267 268 269 270 272 273 277 279 280 282 283 284 285 289 291 293 295 296 297 297
255 255 255 255 255 257 258 258 258 260 261 262 262 263 263 262 262 262 264 265 266 266 267 267 267 268 271 273 274 276 278 280 282 283 283 284 287 289 292 294 295 296 297
255 255 256 256 256 257 258 258 258 259 260 261 262 262 261 262 261 261 262 263 264 266 267 267 266 268 270 272 273 275 277 279 281 282 282 284 286 288 291 293 294 296 297
255 256 258 257 257 257 258 258 258 258 259 260 262 261 262 261 261 261 261 261 263 266 267 268 267 268 268 270 271 274 277 279 281 282 283 284 286 288 290 292 294 296 296
258 257 257 257 257 257 258 258 258 257 260 261 261 262 261 261 261 260 260 260 263 265 265 267 267 267 268 270 271 272 276 278 281 281 283 284 286 288 289 291 293 295 296
257 257 258 257 257 257 258 258 257 257 260 260 260 261 262 263 261 260 260 261 264 264 265 266 266 267 268 269 271 273 276 278 280 282 284 284 285 287 288 290 291 293 295
256 258 258 256 256 257 258 258 258 257 259 260 261 260 260 261 262 262 261 260 263 264 264 265 266 267 268 269 271 273 275 278 279 280 282 283 284 286 288 290 290 292 293
255 255 258 257 257 257 258 258 258 257 258 260 260 260 259 260 260 261 262 260 262 263 263 263 264 266 267 269 270 272 275 277 277 278 280 282 283 284 287 288 289 291 292
256 256 257 258 257 257 258 257 258 257 257 259 260 260 259 259 260 260 260 261 261 263 263 263 263 264 266 270 271 272 274 275 275 276 279 281 284 284 286 288 289 290 291
257 257 257 258 258 258 258 257 257 257 257 258 260 261 260 260 260 260 259 260 262 263 263 263 263 264 267 269 270 270 271 273 274 276 279 281 283 285 285 286 288 289 289
257 257 258 259 259 259 257 257 257 257 257 258 260 262 262 261 260 261 260 260 261 263 262 263 263 265 267 269 270 270 270 272 273 275 277 280 281 284 285 285 286 288 289
259 259 259 260 260 258 257 258 258 257 257 257 258 260 261 261 260 260 260 260 261 263 263 262 263 264 266 268 269 269 270 270 272 274 276 278 279 280 283 284 286 288 288
258 258 257 259 260 258 258 258 257 255 256 257 257 259 260 260 260 260 259 259 260 262 264 263 263 263 264 267 268 268 269 270 271 273 274 277 277 278 281 283 286 287 288
258 258 258 259 259 258 258 257 257 255 256 258 258 259 259 259 259 259 258 259 259 262 263 264 263 262 264 266 267 267 269 270 271 271 272 275 277 279 280 282 285 287 288
258 258 260 260 258 258 258 258 256 255 256 258 259 258 257 257 257 257 258 259 259 261 262 263 263 263 264 265 266 267 269 270 271 270 272 275 277 278 281 283 284 285 286
257 258 259 261 259 258 258 259 258 257 258 259 258 257 256 257 257 258 259 260 260 260 260 262 263 263 264 264 264 266 268 269 270 271 272 273 275 278 281 283 284 284 284
257 257 258 259 260 260 260 261 259 260 260 260 259 257 257 257 258 259 259 259 260 260 261 263 263 264 263 263 264 265 267 268 269 271 271 272 275 277 278 280 281 283 283
259 258 259 259 261 262 263 262 261 261 262 259 258 257 256 257 259 260 260 261 261 261 262 261 260 262 263 263 263 265 266 267 268 270 270 272 275 275 277 278 279 281 282
263 263 263 262 263 264 265 264 261 262 263 261 258 257 256 257 259 259 260 262 261 261 262 261 260 261 261 262 264 266 266 268 269 269 271 273 275 275 277 278 279 281 281
264 264 264 265 266 265 264 264 264 264 262 259 258 257 256 256 258 259 260 262 262 262 263 261 260 261 262 264 265 266 266 268 268 270 273 274 274 274 275 277 279 280 282
266 265 266 267 268 265 264 263 265 264 261 259 259 258 256 256 257 258 260 263 263 262 262 261 260 261 262 263 264 264 265 265 268 271 273 275 274 274 275 278 279 279 281
272 270 268 269 269 267 267 267 267 265 262 260 259 259 258 256 257 258 261 263 263 262 262 261 260 260 260 260 262 264 265 268 271 270 271 274 274 274 275 277 279 278 279
Height
5773 5776 5778 5780 5782 5783 5785 5788 5789 5790 5791 5792 5792 5793 5794 5795 5796 5797 5798 5798 5799 5799 5799 5799 5800 5800 5800 5800 5799 5799 5798 5797 5797 5795 5794 5793 5791 5789 5787 5784 5782 5779 5777
5763 5765 5768 5769 5771 5773 5775 5777 5779 5780 5782 5782 5783 5783 5784 5785 5786 5788 5789 5789 5790 5791 5791 5791 5792 5792 5792 5792 5791 5791 5791 5790 5789 5788 5787 5786 5784 5782 5780 5777 5774 5772 5769
5752 5754 5757 5759 5761 5762 5765 5767 5769 5769 5770 5772 5772 5773 5774 5775 5776 5777 5779 5780 5781 5782 5782 5783 5783 5784 5784 5784 5783 5783 5783 5782 5781 5781 5779 5778 5776 5774 5772 5769 5767 5764 5760
5741 5744 5746 5748 5750 5751 5753 5755 5757 5758 5760 5761 5761 5762 5763 5764 5766 5767 5769 5770 5772 5772 5773 5774 5774 5775 5775 5775 5775 5775 5775 5774 5773 5772 5771 5770 5768 5766 5764 5761 5758 5755 5752
5730 5732 5734 5736 5738 5740 5742 5743 5745 5747 5748 5749 5750 5751 5752 5753 5755 5757 5759 5760 5762 5763 5764 5764 5765 5766 5767 5767 5767 5767 5766 5766 5765 5764 5762 5761 5760 5758 5755 5753 5750 5747 5744
5718 5720 5722 5724 5726 5728 5730 5731 5733 5736 5737 5737 5739 5740 5741 5742 5744 5746 5748 5750 5751 5753 5754 5755 5756 5757 5757 5758 5758 5758 5758 5757 5756 5755 5754 5753 5751 5749 5747 5744 5741 5738 5735
5706 5708 5710 5712 5714 5716 5718 5720 5722 5724 5725 5726 5727 5728 5730 5731 5733 5736 5738 5740 5741 5743 5744 5745 5746 5747 5748 5749 5749 5749 5749 5748 5747 5746 5745 5744 5742 5740 5738 5735 5732 5729 5726
5694 5696 5698 5700 5702 5705 5707 5708 5710 5713 5714 5715 5716 5716 5718 5722 5723 5725 5727 5729 5731 5732 5734 5735 5735 5737 5738 5739 5739 5739 5739 5739 5738 5737 5735 5734 5733 5731 5729 5726 5723 5720 5717
5682 5684 5686 5688 5690 5693 5695 5698 5699 5701 5703 5704 5705 5706 5707 5710 5713 5714 5716 5718 5720 5721 5723 5724 5725 5726 5727 5728 5729 5729 5729 5729 5728 5727 5726 5725 5723 5721 5720 5717 5714 5711 5708
5671 5672 5674 5676 5679 5682 5684 5686 5688 5690 5691 5693 5694 5695 5697 5699 5701 5704 5706 5708 5709 5710 5712 5713 5714 5715 5716 5717 5718 5719 5719 5718 5718 5717 5716 5715 5714 5712 5710 5708 5705 5703 5700
5660 5661 5663 5665 5667 5670 5673 5674 5676 5679 5680 5682 5683 5685 5686 5688 5690 5693 5695 5697 5698 5700 5700 5702 5703 5704 5705 5706 5707 5708 5708 5708 5707 5707 5707 5706 5704 5703 5701 5699 5696 5694 5691
5649 5651 5652 5654 5656 5659 5661 5663 5664 5667 5669 5670 5672 5674 5675 5677 5679 5681 5684 5686 5688 5689 5690 5691 5692 5693 5695 5696 5697 5697 5697 5697 5697 5697 5697 5696 5695 5693 5691 5689 5687 5685 5682
5638 5640 5642 5644 5645 5647 5649 5651 5652 5655 5657 5659 5660 5662 5664 5666 5668 5670 5672 5674 5676 5678 5680 5681 5682 5683 5684 5685 5686 5686 5686 5686 5686 5686 5686 5686 5685 5683 5681 5680 5678 5675 5673
5627 5630 5632 5633 5634 5636 5638 5640 5641 5643 5645 5647 5649 5651 5653 5655 5657 5658 5661 5663 5665 5668 5669 5671 5671 5673 5673 5674 5675 5675 5675 5675 5676 5676 5676 5676 5675 5673 5672 5670 5668 5666 5664
5616 5618 5620 5622 5624 5625 5627 5629 5630 5632 5634 5636 5638 5639 5641 5643 5645 5647 5649 5651 5654 5656 5659 5660 5661 5662 5662 5663 5664 5664 5664 5665 5665 5666 5666 5666 5665 5664 5662 5661 5659 5657 5655
5605 5607 5609 5611 5612 5614 5615 5617 5619 5621 5622 5624 5626 5628 5630 5631 5634 5635 5637 5639 5641 5644 5646 5649 5650 5651 5652 5652 5653 5653 5654 5654 5654 5655 5655 5655 5655 5654 5653 5651 5650 5648 5645
5594 5596 5598 5599 5601 5602 5604 5605 5607 5609 5611 5613 5615 5617 5619 5620 5622 5624 5625 5627 5630 5632 5635 5638 5639 5640 5641 5642 5642 5643 5643 5643 5643 5644 5644 5644 5644 5644 5643 5642 5640 5638 5636
5583 5585 5587 5588 5590 5591 5592 5594 5596 5598 5600 5602 5604 5606 5608 5609 5611 5613 5615 5617 5619 5621 5623 5626 5627 5628 5629 5630 5631 5632 5632 5633 5633 5634 5634 5634 5634 5634 5633 5632 5631 5629 5626
5573 5575 5576 5577 5579 5581 5582 5583 5585 5587 5589 5591 5593 5595 5597 5598 5600 5602 5604 5606 5608 5610 5612 5614 5616 5617 5618 5619 5620 5620 5621 5622 5623 5623 5623 5624 5624 5624 5624 5623 5620 5619 5617
5563 5565 5567 5568 5569 5571 5572 5573 5575 5577 5578 5580 5582 5584 5586 5588 5590 5592 5594 5595 5597 5599 5601 5603 5605 5606 5607 5608 5609 5610 5611 5612 5613 5613 5613 5614 5614 5614 5614 5613 5611 5609 5607
5554 5555 5557 5559 5560 5561 5563 5563 5565 5566 5568 5569 5571 5573 5575 5577 5579 5581 5583 5585 5586 5588 5590 5592 5594 5596 5597 5598 5600 5601 5602 5602 5603 5604 5604 5604 5605 5604 5603 5602 5601 5600 5598
5546 5547 5548 5550 5551 5552 5553 5554 5555 5557 5558 5559 5561 5563 5565 5567 5569 5570 5572 5574 5576 5578 5580 5582 5584 5586 5588 5589 5590 5590 5592 5593 5595 5595 5595 5594 5594 5594 5593 5592 5592 5591 5589
5538 5539 5540 5541 5542 5543 5544 5544 5546 5547 5548 5549 5550 5552 5555 5557 5558 5560 5562 5563 5565 5567 5569 5572 5574 5576 5578 5579 5580 5581 5582 5583 5584 5584 5584 5584 5584 5584 5583 5583 5583 5582 5581
5531 5531 5533 5533 5534 5534 5535 5536 5537 5537 5538 5539 5541 5543 5545 5547 5548 5550 5552 5554 5555 5557 5559 5561 5564 5567 5568 5569 5570 5572 5572 5573 5574 5573 5574 5575 5574 5574 5574 5574 5573 5573 5572
5524 5524 5525 5525 5526 5526 5527 5527 5528 5528 5529 5531 5532 5534 5535 5537 5539 5541 5543 5544 5546 5548 5549 5551 5554 5556 5558 5559 5560 5561 5562 5564 5565 5565 5565 5565 5565 5565 5565 5565 5564 5564 5563
5516 5517 5517 5518 5519 5519 5519 5519 5519 5520 5521 5522 5524 5525 5527 5528 5530 5531 5533 5535 5537 5538 5540 5541 5544 5546 5547 5549 5551 5553 5554 5555 5556 5557 5557 5557 5557 5556 5556 5556 5556 5556 5555